Погода в Любешове

Украина / Волынская область     51°45′46″N   25°29′57″E
темп.,
°C
ветер,
м/с
пор.,
м/с
влажн.,
%
обл.,
%
осадки,
мм/ч
давл.,
гПа
погр.,
м
14 мая, пт
пт1400:00+12юв4109683 0.6 1003406
03:00+11ююв5109698 0.7 1003410
06:00+11ююв5997100 3.5 1002353
09:00+13ююв568861 4.3 1003495
12:00+18ю466333 0.1 10031318
15:00+18ю477172 1.9 1003687
18:00+17юз467443 1.9 1003772
21:00+13юз358899 3.1 100368
15 мая, сб
сб1500:00+11юз3794100 0.0 1004142
03:00+10юз369794 0.0 1005138
06:00+9юз369853 0.0 1006124
09:00+12з5692100 0.0 1007495
12:00+13з5687100 0.1 1009660
15:00+15з367386 0.1 1009928
18:00+15з3676100 0.2 1009584
21:00+11зсз228479 0.2 101015
16 мая, вс
вс1600:00+10ю22841 0.0 101113
03:00+9ю349164 0.0 101144
06:00+9ююв348996 0.0 101163
09:00+14юв587394 0.0 1010394
12:00+19ююв686049 0.0 10091388
15:00+20ююв686598 0.6 10081388
18:00+18ююв61177100 2.3 1006671
21:00+14ю71292100 7.5 1006455
17 мая, пн
пн1700:00+12ю379597 2.4 1007176
03:00+11ю4797100 3.1 1007224
06:00+11юз3698100 0.3 1008191
09:00+13з3484100 0.3 1009636
12:00+16ссз236840 0.0 1008967
15:00+19зсз235120 0.0 10071773
18:00+19зсз12495 0.0 10061488
21:00+14всв226919 0.0 100611
18 мая, вт
вт1800:00+12зсз4887100 0.0 1007247
03:00+11з3593100 0.1 1007210
06:00+11зсз2396100 0.1 1007123
09:00+14з4483100 0.1 1008621
12:00+17з4562100 0.1 10081502
15:00+18зсз565111 0.2 10081908
18:00+17зсз556171 0.0 10081267
21:00+12сз3881100 0.0 1009162